Погода в Кордае

Казахстан     43°02′45″N   74°42′29″E
темп.,
°C
ветер,
м/с
пор.,
м/с
влажн.,
%
обл.,
%
осадки,
мм/ч
давл.,
гПа
погр.,
м
2 марта, вт
вт200:00+3вюв33461 0.0 102427
03:00+3вюв44420 0.0 102258
06:00+3вюв34370 0.0 102240
09:00+6вюв36360 0.0 102398
12:00+12зсз13250 0.0 1021585
15:00+12сз77370 0.0 10201222
18:00+11зюз11450 0.0 102239
21:00+7св116067 0.0 102522
3 марта, ср
ср300:00+4зсз346581 0.0 102696
03:00+3зсз1273100 0.0 102645
06:00+2зсз4590100 0.0 1026203
09:00+1сз2396100 0.2 1026186
12:00+1зсз3395100 0.9 1025189
15:00+2з2294100 0.4 1024158
18:00+3зюз2288100 0.4 1024256
21:00+2юв2396100 0.1 1026200
4 марта, чт
чт400:00+2в348997 0.1 1025106
03:00+1с118387 0.0 102422
06:000з118888 0.0 102422
09:00+1з018894 0.0 102483
12:00+6в226266 0.0 1022440
15:00+10ссв2350100 0.0 1020944
18:00+10св225492 0.0 1020322
21:00+6в23627 0.0 102034
5 марта, пт
пт500:00+6вюв484631 0.0 1018125
03:00+5зсз91680100 0.0 1020802
06:00+2зсз81296100 4.9 1027738
09:000з3596100 3.5 1032306
12:00+3сз226686 3.7 1032906
15:00+5св225163 0.0 10311142
18:00+6ссв234432 0.0 1030699
21:00+2всв23630 0.0 103155
6 марта, сб
сб600:00+1всв12650 0.0 103023
03:00+1всв22640 0.0 102722
06:00+1всв23640 0.0 102530
09:00+3ссв225515 0.0 102394
12:00+10ссв353823 0.0 1017502
15:00+13с343663 0.0 1013470
18:00+10ссз244981 0.0 1013215
21:00+6з1160100 0.0 101534